Weather in Krasnoselskoye

Russia / Republic of Crimea     45°10′58″N   35°11′21″E
temp.,
°C
wind,
m/s
gust,
m/s
humid.,
%
clouds,
%
prec.,
mm/h
press.,
hPa
HPBL,
m
6 august, fri
fri600:00+25ese22640 0.0 101071
03:00+24sse22640 0.0 100947
06:00+23sse12630 0.0 100843
09:00+29ene23455 0.0 1007468
12:00+31ne44460 0.0 10051005
15:00+32ene55470 0.0 10041041
18:00+31e44480 0.0 1003645
21:00+26sse33575 0.0 100352
7 august, sat
sat700:00+25w58605 0.0 1003191
03:00+24wnw23695 0.0 100371
06:00+23w4674100 0.0 1003149
09:00+29wnw55588 0.0 1004535
12:00+31nne664974 0.0 1004967
15:00+31n464499 0.0 1004676
18:00+31ne334598 0.0 1004331
21:00+28nw22588 0.0 100512
8 august, sun
sun800:00+27w456478 0.2 100792
03:00+25nw797638 0.2 1007496
06:00+24wnw6879100 0.0 1009434
09:00+26nw7870100 0.0 1010854
12:00+28nnw7762100 0.0 1010913
15:00+29nnw785684 0.0 1010989
18:00+28n575335 0.0 1011683
21:00+26wnw34595 0.0 1012155
9 august, mon
mon900:00+25wnw576424 0.9 1012188
03:00+24w58695 1.4 1012180
06:00+23w69755 0.0 1012228
09:00+26nnw567089 9.8 1012467
12:00+29n555855 1.1 1013854
15:00+29n554698 1.1 1013612
18:00+29se113998 0.0 1013235
21:00+27ssw4443100 0.0 101376
10 august, tue
tue1000:00+25wsw58476 0.0 1013160
03:00+25wnw5105384 0.0 1013237
06:00+24wnw47604 0.0 1013192
09:00+28wnw56440 0.0 1013679
12:00+31n78414 0.0 10121371
15:00+30n68445 0.0 1012910
18:00+30n24423 0.0 1012363
21:00+27wsw11510 0.0 101211